Regional Weather Roundup
Issued by NWS Sterling, VA

Home | Current Version | Previous Version | Graphics & Text | Print | Product List | Glossary Off
Versions: 1 2 3 4 5 6 7 8 9 10 11 12 13 14 15 16 17 18 19 20 21 22 23 24 25 26 27 28 29 30 31 32 33 34 35 36 37 38 39 40 41 42 43 44 45 46 47 48 49 50

811
ASUS41 KLWX 171111
RWRLWX

REGIONAL WEATHER ROUNDUP
NATIONAL WEATHER SERVICE BALTIMORE MD/WASHINGTON DC
700 AM EDT TUE OCT 17 2017

Note: "FAIR" indicates few or no clouds below 12,000 feet
with no significant weather and/or obstructions to visibility.
 TC=TEMPERATURE CELSIUS

 * =Non NWS site. Station does not report precipitation (e.g. rain,
    snow, etc.), thunder, or fog.

DCZ001-MDZ009-015-VAZ040>042-051-053>054-171200-
WASHINGTON METRO

CITY           SKY/WX    TMP DP  RH WIND       PRES   REMARKS
WASHINGTON NAT PTCLDY    47  37  68 N7        30.35R
DULLES         CLEAR     37  35  92 CALM      30.35R
ANDREWS AFB    CLEAR     41  35  77 N6        30.33R
FT BELVOIR     CLEAR     40  37  91 CALM      30.35R
QUANTICO       PTCLDY    44  39  82 NW6       30.36R
COLLEGE PARK*  CLEAR     38  37  95 CALM      30.34R
LEESBURG*      CLEAR     41  37  87 CALM      30.36R
MANASSAS*      CLEAR     35  35 100 CALM      30.36R
GAITHERSBURG*  CLEAR     37  35  92 CALM      30.34R

$$

MDZ006>007-011-014-171200-
BALTIMORE METRO

CITY           SKY/WX    TMP DP  RH WIND       PRES   REMARKS
BWI AIRPORT    PTCLDY    39  37  92 CALM      30.34R
MD SCIENCE CTR   N/A     48  36  63 MISG      30.35R
ANNAPOLIS      CLEAR     50  44  80 N8        30.34R
FORT MEADE*    CLEAR     36  36 100 CALM      30.36R

$$

MDZ012-015-019>023-171200-
MARYLAND EASTERN SHORE

CITY           SKY/WX    TMP DP  RH WIND       PRES   REMARKS
OCEAN CITY     CLEAR     45  37  73 N8        30.29R
SALISBURY      CLEAR     42  35  76 N8        30.30R
CAMBRIDGE*     CLEAR     45  37  76 N8G16     30.32R
EASTON*        CLEAR     41  36  81 N5        30.36R

$$

MDZ017>025-171200-
SOUTHERN MARYLAND

CITY           SKY/WX    TMP DP  RH WIND       PRES   REMARKS
PATUXENT RIVER CLEAR     49  38  65 NE14      30.32R
ST INIGOES     CLEAR     50  38  63 VRB5      30.31R
LEONARDTOWN*   NOT AVBL

$$

MDZ003>005-171200-
NORTH CENTRAL MARYLAND

CITY           SKY/WX    TMP DP  RH WIND       PRES   REMARKS
FREDERICK*     CLEAR     37  37 100 CALM      30.38R
HAGERSTOWN APT CLEAR     40  34  79 CALM      30.34R
WESTMINSTER*   CLEAR     39  36  87 N3        30.32R

$$

MDZ501>502-171200-
WESTERN MARYLAND

CITY           SKY/WX    TMP DP  RH WIND       PRES   REMARKS
OAKLAND*       CLEAR     34  30  86 CALM      30.28R
CUMBERLAND*    CLEAR     36  36 100 CALM      30.40R

$$

VAZ025>031-171200-
SHENANDOAH VALLEY

CITY           SKY/WX    TMP DP  RH WIND       PRES   REMARKS
WINCHESTER*    CLEAR     34  32  93 CALM      30.35R
FRONT ROYAL*   CLEAR     36  36 100 S3        30.34R
LURAY*         CLEAR     36  36 100 CALM      30.35R
NEW MARKET*    CLEAR     33  32  96 CALM      30.35R
STAUNTON*      CLEAR     33  32  98 CALM      30.37R
WAYNESBORO*    CLEAR     35  35  99 SW3       30.34R

$$

WVZ021-048>050-054>055-171200-
EASTERN WEST VIRGINIA PANHANDLE

CITY           SKY/WX    TMP DP  RH WIND       PRES   REMARKS
MARTINSBURG    CLEAR     37  33  85 CALM      30.34R
PETERSBURG*    MOCLDY    32  32  99 CALM      30.37R

$$

VAZ036>039-050-171200-
CENTRAL FOOTHILLS

CITY           SKY/WX    TMP DP  RH WIND       PRES   REMARKS
CHARLOTTESVILL CLEAR     41  38  89 CALM      30.35R
CULPEPER*      CLEAR     38  35  89 CALM      30.36R
ORANGE*        CLEAR     39  36  87 CALM      30.35R
GORDONSVILLE*  CLEAR     38  37  97 CALM      30.35R
WARRENTON*     CLEAR     34  32  91 CALM      30.35R

$$

VAZ055>057-171200-
NORTH AND CENTRAL PIEDMONT

CITY           SKY/WX    TMP DP  RH WIND       PRES   REMARKS
FREDERICKSBRG* CLEAR     44  38  82 NW5       30.34R
STAFFORD*      PTCLDY    36  36 100 N6        30.39R

$$

NCZ024-NYZ072-PAZ021-071-VAZ022-071-171200-
OTHER REGIONAL OBSERVATIONS

CITY           SKY/WX    TMP DP  RH WIND       PRES   REMARKS
NEW YORK CITY  CLEAR     43  34  70 VRB3      30.34R
PHILADELPHIA   CLEAR     43  32  65 N8        30.33R
PITTSBURGH     CLEAR     36  34  92 CALM      30.34R
ROANOKE        CLEAR     41  39  93 CALM      30.36R
RICHMOND       PTCLDY    43  38  82 N9        30.32R
RALEIGH        PTCLDY    46  41  82 N5        30.30R

$$

ANZ530>537-171200-
MARINE OBSERVATIONS

STATION/POSITION TIME  TEMP    WIND        PRES
                       AIR SEA DIR/SP/G
                 (UTC) (F)     (DEG/KT/KT) (MB)
THOMAS PT LIGHT  1100   51 68   10/ 17/ 22   N/A
BALT KEY BRIDGE  1048   46      10/  9/ 12 1027.3R
COVE POINT       1048   50      50/ 16/ 20 1027.3R
LEWISETTA        1048   52 65   40/ 11/ 16 1026.3R
SOLOMONS ISLAND  1048   50 70   40/  7/ 12 1026.4R
PINEY POINT      1048           40/  5/  7   N/A

$$





USA.gov is the U.S. government's official web portal to all federal, state and local government web resources and services.